| time (UTC) | temp F | wind direction | speed MPH | gust MPH | rain 1hr in | rain 24hr in | rain mn in | humidity % | barometer mb |
| 20260503191053 | 65 | 226 | 2.0 | 6.0 | 0.00 | 0.00 | 0.00 | 45 | 1007.3 |
| 20260503190550 | 64 | 169 | 0.0 | 3.0 | 0.00 | 0.00 | 0.00 | 50 | 1007.4 |
| 20260503190048 | 64 | 230 | 2.0 | 5.0 | 0.00 | 0.00 | 0.00 | 49 | 1007.5 |
| 20260503185539 | 64 | 228 | 5.0 | 6.0 | 0.00 | 0.00 | 0.00 | 45 | 1007.3 |
| 20260503185038 | 64 | 148 | 2.0 | 4.0 | 0.00 | 0.00 | 0.00 | 49 | 1007.6 |
| 20260503184534 | 63 | 151 | 3.0 | 6.0 | 0.00 | 0.00 | 0.00 | 47 | 1007.5 |
| 20260503184031 | 63 | 119 | 1.0 | 4.0 | 0.00 | 0.00 | 0.00 | 49 | 1007.5 |
| 20260503183528 | 63 | 243 | 2.0 | 8.0 | 0.00 | 0.00 | 0.00 | 46 | 1007.6 |
| 20260503183025 | 62 | 204 | 0.0 | 5.0 | 0.00 | 0.00 | 0.00 | 49 | 1007.6 |
| 20260503182523 | 61 | 180 | 2.0 | 6.0 | 0.00 | 0.00 | 0.00 | 46 | 1007.9 |
| 20260503182021 | 60 | 187 | 6.0 | 11.0 | 0.00 | 0.00 | 0.00 | 47 | 1008.2 |
| 20260503181518 | 62 | 225 | 2.0 | 7.0 | 0.00 | 0.00 | 0.00 | 49 | 1007.9 |
| 20260503181014 | 62 | 120 | 3.0 | 5.0 | 0.00 | 0.00 | 0.00 | 49 | 1008.5 |
| 20260503180511 | 62 | 119 | 2.0 | 6.0 | 0.00 | 0.00 | 0.00 | 50 | 1008.5 |
| 20260503180008 | 62 | 87 | 2.0 | 5.0 | 0.00 | 0.00 | 0.00 | 52 | 1008.3 |
| 20260503175506 | 61 | 179 | 2.0 | 6.0 | 0.00 | 0.00 | 0.00 | 48 | 1008.7 |
| 20260503175002 | 61 | 166 | 2.0 | 3.0 | 0.00 | 0.00 | 0.00 | 53 | 1008.7 |
| 20260503174500 | 60 | 200 | 4.0 | 5.0 | 0.00 | 0.00 | 0.00 | 52 | 1008.9 |
| 20260503173955 | 61 | 179 | 2.0 | 5.0 | 0.00 | 0.00 | 0.00 | 51 | 1008.9 |
| 20260503173451 | 61 | 205 | 4.0 | 4.0 | 0.00 | 0.00 | 0.00 | 54 | 1009.0 |
| 20260503172948 | 61 | 191 | 1.0 | 4.0 | 0.00 | 0.00 | 0.00 | 54 | 1009.3 |
| 20260503172446 | 60 | 146 | 5.0 | 5.0 | 0.00 | 0.00 | 0.00 | 52 | 1009.6 |
| 20260503171942 | 60 | 217 | 3.0 | 5.0 | 0.00 | 0.00 | 0.00 | 54 | 1009.6 |
| 20260503171438 | 59 | 157 | 4.0 | 5.0 | 0.00 | 0.00 | 0.00 | 58 | 1009.9 |
| 20260503170936 | 58 | 258 | 1.0 | 4.0 | 0.00 | 0.00 | 0.00 | 59 | 1010.2 |
| 20260503170432 | 58 | 216 | 3.0 | 7.0 | 0.00 | 0.00 | 0.00 | 56 | 1009.9 |
| 20260503150825 | 55 | 143 | 4.0 | 7.0 | 0.00 | 0.00 | 0.00 | 55 | 1011.4 |
| 20260503150321 | 55 | 260 | 3.0 | 5.0 | 0.00 | 0.00 | 0.00 | 56 | 1011.7 |
| 20260503140245 | 53 | 284 | 0.0 | 3.0 | 0.00 | 0.00 | 0.00 | 55 | 1012.0 |
| 20260503131215 | 51 | 159 | 0.0 | 3.0 | 0.00 | 0.00 | 0.00 | 55 | 1012.4 |
| 20260503130712 | 51 | 133 | 0.0 | 3.0 | 0.00 | 0.00 | 0.00 | 55 | 1012.8 |
| 20260503130209 | 50 | 97 | 1.0 | 3.0 | 0.00 | 0.00 | 0.00 | 59 | 1012.7 |
| 20260503120135 | 48 | 246 | 0.0 | 3.0 | 0.00 | 0.00 | 0.00 | 59 | 1012.9 |
| 20260503110603 | 48 | 161 | 0.0 | 4.0 | 0.00 | 0.00 | 0.00 | 56 | 1012.0 |
| 20260503090449 | 46 | 142 | 1.0 | 2.0 | 0.00 | 0.00 | 0.00 | 56 | 1012.6 |
| 20260503081416 | 46 | 87 | 1.0 | 2.0 | 0.00 | 0.00 | 0.00 | 56 | 1013.1 |
| 20260503080913 | 46 | 139 | 0.0 | 2.0 | 0.00 | 0.00 | 0.00 | 55 | 1013.0 |
| 20260503080409 | 46 | 95 | 1.0 | 2.0 | 0.00 | 0.00 | 0.00 | 56 | 1013.1 |
| 20260503072846 | 45 | 118 | 1.0 | 2.0 | 0.00 | 0.00 | 0.00 | 57 | 1013.1 |
| 20260503072343 | 45 | 93 | 0.0 | 2.0 | 0.00 | 0.00 | 0.00 | 56 | 1013.1 |
| 20260503071839 | 44 | 101 | 1.0 | 2.0 | 0.00 | 0.00 | 0.00 | 57 | 1013.1 |
| 20260503071337 | 44 | 126 | 0.0 | 2.0 | 0.00 | 0.00 | 0.00 | 59 | 1013.4 |
| 20260503070833 | 44 | 112 | 2.0 | 2.0 | 0.00 | 0.00 | 0.00 | 60 | 1013.2 |
| 20260503070331 | 44 | 123 | 2.0 | 2.0 | 0.00 | 0.00 | 0.00 | 60 | 1013.4 |
| 20260503060256 | 43 | 127 | 2.0 | 2.0 | 0.00 | 0.00 | 0.00 | 61 | 1013.7 |
| 20260503054743 | 44 | 108 | 1.0 | 2.0 | 0.00 | 0.00 | 0.00 | 60 | 1013.9 |
| 20260503054240 | 44 | 117 | 2.0 | 3.0 | 0.00 | 0.00 | 0.00 | 60 | 1013.8 |
| 20260503053738 | 44 | 114 | 2.0 | 2.0 | 0.00 | 0.00 | 0.00 | 60 | 1013.9 |
| 20260503053236 | 44 | 125 | 2.0 | 2.0 | 0.00 | 0.00 | 0.00 | 60 | 1013.8 |
| 20260503052732 | 45 | 97 | 2.0 | 2.0 | 0.00 | 0.00 | 0.00 | 57 | 1013.9 |
| 20260503052229 | 45 | 103 | 2.0 | 3.0 | 0.00 | 0.00 | 0.00 | 56 | 1014.1 |
| 20260503051724 | 45 | 123 | 2.0 | 2.0 | 0.00 | 0.00 | 0.00 | 56 | 1014.0 |
| 20260503051222 | 45 | 113 | 1.0 | 2.0 | 0.00 | 0.00 | 0.00 | 56 | 1014.2 |
| 20260503050718 | 45 | 136 | 2.0 | 2.0 | 0.00 | 0.00 | 0.00 | 56 | 1014.0 |
| 20260503050215 | 45 | 122 | 2.0 | 2.0 | 0.00 | 0.00 | 0.00 | 55 | 1014.0 |
| 20260503045712 | 45 | 113 | 1.0 | 2.0 | 0.00 | 0.00 | 0.00 | 57 | 1014.1 |
| 20260503045210 | 45 | 149 | 2.0 | 2.0 | 0.00 | 0.00 | 0.00 | 56 | 1014.1 |
| 20260503044706 | 45 | 127 | 2.0 | 2.0 | 0.00 | 0.00 | 0.00 | 57 | 1014.4 |
| 20260503044204 | 45 | 127 | 1.0 | 2.0 | 0.00 | 0.00 | 0.00 | 58 | 1014.0 |
| 20260503043700 | 45 | 115 | 1.0 | 3.0 | 0.00 | 0.00 | 0.00 | 57 | 1013.9 |
| 20260503043158 | 45 | 120 | 1.0 | 3.0 | 0.00 | 0.00 | 0.00 | 58 | 1014.1 |
| 20260503042653 | 44 | 110 | 2.0 | 2.0 | 0.00 | 0.00 | 0.00 | 59 | 1014.2 |
| 20260503042150 | 44 | 120 | 2.0 | 2.0 | 0.00 | 0.00 | 0.00 | 59 | 1014.3 |
| 20260503041646 | 45 | 118 | 2.0 | 2.0 | 0.00 | 0.00 | 0.00 | 58 | 1014.2 |
| 20260503041144 | 45 | 138 | 2.0 | 2.0 | 0.00 | 0.00 | 0.00 | 58 | 1014.4 |
| 20260503040642 | 45 | 128 | 2.0 | 2.0 | 0.00 | 0.00 | 0.00 | 58 | 1014.4 |
| 20260503040139 | 45 | 111 | 1.0 | 3.0 | 0.00 | 0.00 | 0.00 | 58 | 1014.3 |
| 20260503035635 | 45 | 133 | 2.0 | 2.0 | 0.00 | 0.00 | 0.00 | 59 | 1014.5 |
| 20260503035133 | 45 | 131 | 2.0 | 2.0 | 0.00 | 0.00 | 0.00 | 58 | 1014.3 |
| 20260503034630 | 45 | 114 | 2.0 | 2.0 | 0.00 | 0.00 | 0.00 | 58 | 1014.4 |
| 20260503034127 | 45 | 111 | 1.0 | 2.0 | 0.00 | 0.00 | 0.00 | 59 | 1014.7 |
| 20260503033624 | 45 | 124 | 1.0 | 2.0 | 0.00 | 0.00 | 0.00 | 59 | 1014.5 |
| 20260503033122 | 45 | 121 | 1.0 | 2.0 | 0.00 | 0.00 | 0.00 | 60 | 1014.6 |
| 20260503032620 | 45 | 89 | 2.0 | 2.0 | 0.00 | 0.00 | 0.00 | 61 | 1014.6 |
| 20260503032119 | 44 | 94 | 2.0 | 2.0 | 0.00 | 0.00 | 0.00 | 60 | 1014.6 |
| 20260503031616 | 44 | 118 | 1.0 | 2.0 | 0.00 | 0.00 | 0.00 | 62 | 1014.5 |
| 20260503031113 | 42 | 106 | 2.0 | 2.0 | 0.00 | 0.00 | 0.00 | 68 | 1014.5 |
| 20260503030609 | 42 | 82 | 1.0 | 2.0 | 0.00 | 0.00 | 0.00 | 72 | 1014.9 |
| 20260503030106 | 41 | 87 | 1.0 | 2.0 | 0.00 | 0.00 | 0.00 | 73 | 1014.7 |
| 20260503025603 | 42 | 69 | 2.0 | 2.0 | 0.00 | 0.00 | 0.00 | 73 | 1014.8 |
| 20260503025101 | 42 | 75 | 2.0 | 2.0 | 0.00 | 0.00 | 0.00 | 72 | 1014.6 |
| 20260503024556 | 42 | 80 | 1.0 | 2.0 | 0.00 | 0.00 | 0.00 | 71 | 1014.8 |
| 20260503024054 | 42 | 77 | 2.0 | 2.0 | 0.00 | 0.00 | 0.00 | 71 | 1014.6 |
| 20260503023550 | 42 | 75 | 1.0 | 2.0 | 0.00 | 0.00 | 0.00 | 70 | 1014.7 |
| 20260503023048 | 42 | 96 | 1.0 | 2.0 | 0.00 | 0.00 | 0.00 | 70 | 1014.8 |
| 20260503022544 | 42 | 68 | 1.0 | 2.0 | 0.00 | 0.00 | 0.00 | 70 | 1014.6 |
| 20260503022038 | 43 | 71 | 2.0 | 2.0 | 0.00 | 0.00 | 0.00 | 68 | 1014.6 |
| 20260503021536 | 43 | 74 | 1.0 | 2.0 | 0.00 | 0.00 | 0.00 | 67 | 1014.6 |
| 20260503021032 | 44 | 70 | 1.0 | 2.0 | 0.00 | 0.00 | 0.00 | 65 | 1014.7 |
| 20260503020530 | 45 | 60 | 2.0 | 2.0 | 0.00 | 0.00 | 0.00 | 63 | 1014.7 |
| 20260503020027 | 46 | 67 | 2.0 | 2.0 | 0.00 | 0.00 | 0.00 | 61 | 1014.5 |
| 20260503015523 | 46 | 80 | 1.0 | 2.0 | 0.00 | 0.00 | 0.00 | 59 | 1014.3 |
| 20260503015020 | 47 | 92 | 2.0 | 2.0 | 0.00 | 0.00 | 0.00 | 54 | 1014.5 |
| 20260503014516 | 47 | 101 | 2.0 | 2.0 | 0.00 | 0.00 | 0.00 | 53 | 1014.5 |
| 20260503014015 | 47 | 106 | 2.0 | 2.0 | 0.00 | 0.00 | 0.00 | 52 | 1014.4 |
| 20260503013511 | 47 | 87 | 2.0 | 2.0 | 0.00 | 0.00 | 0.00 | 53 | 1014.5 |
| 20260503013009 | 47 | 89 | 2.0 | 2.0 | 0.00 | 0.00 | 0.00 | 52 | 1014.5 |
| 20260503012507 | 47 | 92 | 2.0 | 2.0 | 0.00 | 0.00 | 0.00 | 53 | 1014.4 |
| 20260503012002 | 47 | 89 | 2.0 | 2.0 | 0.00 | 0.00 | 0.00 | 53 | 1014.5 |
| 20260503011459 | 47 | 84 | 2.0 | 2.0 | 0.00 | 0.00 | 0.00 | 52 | 1014.4 |
| 20260503010956 | 48 | 81 | 2.0 | 2.0 | 0.00 | 0.00 | 0.00 | 52 | 1014.4 |
| 20260503010453 | 48 | 77 | 2.0 | 2.0 | 0.00 | 0.00 | 0.00 | 52 | 1014.5 |
| 20260503005950 | 49 | 72 | 1.0 | 2.0 | 0.00 | 0.00 | 0.00 | 51 | 1014.5 |
| 20260503005447 | 50 | 88 | 2.0 | 2.0 | 0.00 | 0.00 | 0.00 | 49 | 1014.3 |
| 20260503004944 | 50 | 85 | 1.0 | 2.0 | 0.00 | 0.00 | 0.00 | 47 | 1014.4 |
| 20260503004441 | 50 | 92 | 1.0 | 2.0 | 0.00 | 0.00 | 0.00 | 46 | 1014.4 |
| 20260503003939 | 51 | 103 | 2.0 | 2.0 | 0.00 | 0.00 | 0.00 | 46 | 1014.3 |
| 20260503003435 | 51 | 109 | 1.0 | 2.0 | 0.00 | 0.00 | 0.00 | 44 | 1014.3 |
| 20260503002932 | 51 | 79 | 0.0 | 2.0 | 0.00 | 0.00 | 0.00 | 47 | 1014.6 |
| 20260503002429 | 51 | 78 | 2.0 | 2.0 | 0.00 | 0.00 | 0.00 | 48 | 1014.6 |
| 20260503001926 | 52 | 76 | 2.0 | 2.0 | 0.00 | 0.00 | 0.00 | 44 | 1014.6 |
| 20260503001422 | 52 | 93 | 0.0 | 2.0 | 0.00 | 0.00 | 0.00 | 44 | 1014.6 |
| 20260503000920 | 53 | 60 | 1.0 | 2.0 | 0.00 | 0.00 | 0.00 | 42 | 1014.6 |
| 20260503000417 | 53 | 76 | 0.0 | 2.0 | 0.00 | 0.00 | 0.00 | 40 | 1014.7 |
| 20260502235914 | 54 | 310 | 0.0 | 2.0 | 0.00 | 0.00 | 0.00 | 41 | 1014.7 |
| 20260502235411 | 55 | 103 | 0.0 | 1.0 | 0.00 | 0.00 | 0.00 | 39 | 1014.6 |
| 20260502234908 | 56 | 267 | 2.0 | 3.0 | 0.00 | 0.00 | 0.00 | 36 | 1014.7 |
| 20260502234404 | 56 | 262 | 1.0 | 2.0 | 0.00 | 0.00 | 0.00 | 36 | 1014.8 |
| 20260502233902 | 55 | 109 | 0.0 | 3.0 | 0.00 | 0.00 | 0.00 | 37 | 1014.7 |
| 20260502233357 | 55 | 318 | 0.0 | 2.0 | 0.00 | 0.00 | 0.00 | 37 | 1014.7 |
| 20260502232854 | 54 | 38 | 2.0 | 2.0 | 0.00 | 0.00 | 0.00 | 39 | 1014.9 |
| 20260502232351 | 55 | 127 | 0.0 | 2.0 | 0.00 | 0.00 | 0.00 | 36 | 1015.0 |
| 20260502231847 | 55 | 52 | 0.0 | 2.0 | 0.00 | 0.00 | 0.00 | 35 | 1014.6 |
| 20260502231345 | 55 | 293 | 0.0 | 2.0 | 0.00 | 0.00 | 0.00 | 36 | 1015.0 |
| 20260502230843 | 55 | 258 | 1.0 | 4.0 | 0.00 | 0.00 | 0.00 | 35 | 1015.0 |
| 20260502230341 | 56 | 293 | 2.0 | 2.0 | 0.00 | 0.00 | 0.00 | 36 | 1014.8 |
| 20260502225838 | 57 | 328 | 2.0 | 4.0 | 0.00 | 0.00 | 0.00 | 34 | 1015.2 |
| 20260502225334 | 58 | 278 | 0.0 | 4.0 | 0.00 | 0.00 | 0.00 | 34 | 1015.2 |
| 20260502224831 | 58 | 316 | 2.0 | 3.0 | 0.00 | 0.00 | 0.00 | 34 | 1014.9 |
| 20260502224327 | 57 | 343 | 2.0 | 3.0 | 0.00 | 0.00 | 0.00 | 34 | 1015.1 |
| 20260502223825 | 56 | 139 | 0.0 | 4.0 | 0.00 | 0.00 | 0.00 | 35 | 1015.0 |
| 20260502223323 | 55 | 57 | 0.0 | 4.0 | 0.00 | 0.00 | 0.00 | 35 | 1014.9 |
| 20260502222820 | 55 | 199 | 2.0 | 6.0 | 0.00 | 0.00 | 0.00 | 35 | 1014.9 |
| 20260502222318 | 56 | 201 | 0.0 | 4.0 | 0.00 | 0.00 | 0.00 | 36 | 1015.1 |
| 20260502221813 | 57 | 9 | 2.0 | 3.0 | 0.00 | 0.00 | 0.00 | 37 | 1015.0 |
| 20260502221309 | 58 | 267 | 2.0 | 3.0 | 0.00 | 0.00 | 0.00 | 37 | 1015.0 |
| 20260502220807 | 57 | 200 | 1.0 | 4.0 | 0.00 | 0.00 | 0.00 | 38 | 1015.3 |
| 20260502220302 | 55 | 57 | 1.0 | 3.0 | 0.00 | 0.00 | 0.00 | 38 | 1015.1 |
| 20260502215759 | 55 | 117 | 2.0 | 2.0 | 0.00 | 0.00 | 0.00 | 37 | 1015.2 |
| 20260502215257 | 55 | 300 | 5.0 | 6.0 | 0.00 | 0.00 | 0.00 | 34 | 1015.1 |
| 20260502214754 | 57 | 323 | 3.0 | 4.0 | 0.00 | 0.00 | 0.00 | 34 | 1015.5 |
| 20260502214250 | 57 | 346 | 0.0 | 3.0 | 0.00 | 0.00 | 0.00 | 36 | 1015.4 |
| 20260502213748 | 57 | 291 | 1.0 | 2.0 | 0.00 | 0.00 | 0.00 | 37 | 1015.4 |
| 20260502213245 | 57 | 275 | 4.0 | 6.0 | 0.00 | 0.00 | 0.00 | 35 | 1015.6 |
| 20260502212744 | 57 | 359 | 1.0 | 3.0 | 0.00 | 0.00 | 0.00 | 37 | 1015.3 |
| 20260502212242 | 57 | 196 | 3.0 | 4.0 | 0.00 | 0.00 | 0.00 | 36 | 1015.5 |
| 20260502211737 | 56 | 298 | 2.0 | 4.0 | 0.00 | 0.00 | 0.00 | 36 | 1015.5 |
| 20260502211234 | 55 | 267 | 2.0 | 2.0 | 0.00 | 0.00 | 0.00 | 37 | 1015.6 |
| 20260502210731 | 55 | 296 | 2.0 | 4.0 | 0.00 | 0.00 | 0.00 | 40 | 1015.7 |
| 20260502210229 | 55 | 264 | 3.0 | 8.0 | 0.00 | 0.00 | 0.00 | 36 | 1015.7 |
| 20260502205726 | 55 | 3 | 5.0 | 8.0 | 0.00 | 0.00 | 0.00 | 38 | 1015.6 |
| 20260502205222 | 54 | 43 | 1.0 | 4.0 | 0.00 | 0.00 | 0.00 | 41 | 1015.8 |
| 20260502204719 | 54 | 293 | 1.0 | 2.0 | 0.00 | 0.00 | 0.00 | 37 | 1015.7 |
| 20260502204217 | 54 | 302 | 1.0 | 4.0 | 0.00 | 0.00 | 0.00 | 41 | 1015.7 |
| 20260502203714 | 54 | 0 | 0.0 | 5.0 | 0.00 | 0.00 | 0.00 | 39 | 1016.0 |
| 20260502203212 | 55 | 355 | 2.0 | 3.0 | 0.00 | 0.00 | 0.00 | 39 | 1016.0 |
| 20260502202706 | 54 | 274 | 2.0 | 7.0 | 0.00 | 0.00 | 0.00 | 37 | 1016.0 |
| 20260502202204 | 54 | 285 | 2.0 | 4.0 | 0.00 | 0.00 | 0.00 | 39 | 1015.9 |
| 20260502201702 | 53 | 345 | 0.0 | 2.0 | 0.00 | 0.00 | 0.00 | 41 | 1016.1 |
| 20260502201158 | 53 | 211 | 2.0 | 5.0 | 0.00 | 0.00 | 0.00 | 38 | 1016.1 |
| 20260502200653 | 55 | 314 | 1.0 | 3.0 | 0.00 | 0.00 | 0.00 | 38 | 1016.2 |
| 20260502200150 | 55 | 168 | 0.0 | 2.0 | 0.00 | 0.00 | 0.00 | 40 | 1016.2 |
| 20260502195649 | 54 | 261 | 2.0 | 4.0 | 0.00 | 0.00 | 0.00 | 36 | 1016.6 |
| 20260502195144 | 55 | 293 | 0.0 | 3.0 | 0.00 | 0.00 | 0.00 | 39 | 1016.4 |
| 20260502194641 | 57 | 57 | 2.0 | 2.0 | 0.00 | 0.00 | 0.00 | 39 | 1016.6 |
| 20260502194138 | 56 | 18 | 3.0 | 6.0 | 0.00 | 0.00 | 0.00 | 40 | 1016.6 |
| 20260502193635 | 55 | 29 | 0.0 | 3.0 | 0.00 | 0.00 | 0.00 | 37 | 1016.5 |
| 20260502193132 | 56 | 288 | 1.0 | 5.0 | 0.00 | 0.00 | 0.00 | 37 | 1016.8 |
| 20260502192627 | 54 | 302 | 2.0 | 2.0 | 0.00 | 0.00 | 0.00 | 41 | 1016.8 |
| 20260502192125 | 53 | 69 | 0.0 | 2.0 | 0.00 | 0.00 | 0.00 | 42 | 1017.0 |
| 20260502191621 | 53 | 27 | 4.0 | 6.0 | 0.00 | 0.00 | 0.00 | 40 | 1017.1 |